Location: Arleux
(50.3632°N, 2.8721°E)
Time: 11:53:33
(UTC+00:00)

Meteor 1-14 Rocket - Pass Details

Date: 15 December 2019
Orbit: 833 x 920 km, 81.3° (Epoch: 21 January)

Event Time Altitude Azimuth Distance (km) Brightness Sun altitude
Rises 05:24:20 0° 206° (SSW) 3,537 7.3 -20.7°
Reaches altitude 10° 05:26:51 10° 211° (SSW) 2,605 6.5 -20.3°
Maximum altitude 05:32:40 53° 288° (WNW) 1,125 4.4 -19.4°
Drops below altitude 10° 05:38:32 10° 5° (N) 2,623 6.7 -18.4°
Sets 05:41:06 0° 10° (N) 3,564 7.4 -18.1°
